Mount Holly, NJ

12:56 AM EST on December 10, 2019 (GMT -0500)
South Jersey Regional

Weather History for KVAY - September, 2019

Change the Weather History Date:

Sunday, September 29, 2019

  Actual Average (WUND) Record (WUND)
Temperature  
Mean Temperature 72 °F -  
Max Temperature 81 °F - - (-1)
Min Temperature 64 °F - - (-1)
Cooling Degree Days 7    
Growing Degree Days 22 (Base 50)    
Moisture  
Dew Point 65 °F    
Average Humidity 84    
Maximum Humidity 97    
Minimum Humidity 54    
Precipitation  
Precipitation 0.00 in - - ()
Sea Level Pressure  
Sea Level Pressure 30.16 in    
Wind  
Wind Speed 2 mph (NNE)    
Max Wind Speed 12 mph    
Max Gust Speed -    
Visibility 6 miles    
Events Fog , Rain    
Averages and records for this station are not official NWS values.
T = Trace of Precipitation, MM = Missing Value Source: NWS Daily Summary

Daily Weather History Graph

Daily Weather History Graph

Search for Another Location

Airport or City:

Astronomy

Sep. 29, 2019 Rise Set
Actual Time 6:53 AM EDT 6:45 PM EDT
Civil Twilight 6:26 AM EDT 7:12 PM EDT
Nautical Twilight 5:55 AM EDT 7:43 PM EDT
Astronomical Twilight 5:23 AM EDT 8:15 PM EDT
Moon 7:41 AM EDT (9/29) 7:44 PM EDT (9/29)
Length of Visible Light 12h 45m
Length of Day
11h 51m
New Moon, 1% of the Moon is Illuminated
Sep 29
New Moon
Oct 5
First Quarter
Oct 13
Full
Oct 21
Last Quarter
Oct 27
New

Hourly Weather History & Observations

Time (EDT) Temp. Heat Index Dew Point Humidity Pressure Visibility Wind Dir Wind Speed Gust Speed Precip Events Conditions
12:05 AM 70.0 °F - 68.0 °F 93% 30.08 in 10.0 mi Calm Calm - N/A Rain Light Rain
12:54 AM 69.1 °F - 68.0 °F 96% 30.09 in 10.0 mi Calm Calm - N/A   Clear
1:50 AM 68.0 °F - 66.2 °F 94% 30.08 in 1.5 mi Calm Calm - N/A   Clear
1:54 AM 68.0 °F - 66.0 °F 93% 30.08 in 0.8 mi Calm Calm - N/A   Clear
2:01 AM 66.0 °F - 64.9 °F 96% 30.09 in 0.5 mi Calm Calm - N/A Fog Fog
2:13 AM 69.1 °F - 66.9 °F 93% 30.09 in 1.5 mi Calm Calm - N/A   Partly Cloudy
2:16 AM 68.0 °F - 66.9 °F 96% 30.09 in 3.0 mi Calm Calm - N/A   Partly Cloudy
2:54 AM 68.0 °F - 66.9 °F 96% 30.10 in 9.0 mi North 3.5 mph - N/A   Clear
3:27 AM 68.0 °F - 66.9 °F 96% 30.10 in 1.5 mi Calm Calm - N/A   Clear
3:30 AM 68.0 °F - 66.9 °F 96% 30.10 in 0.8 mi Calm Calm - N/A   Mist
3:42 AM 68.0 °F - 66.0 °F 93% 30.10 in 0.2 mi Calm Calm - N/A Fog Fog
3:54 AM 66.9 °F - 66.0 °F 97% 30.11 in 0.5 mi Calm Calm - N/A Fog Fog
4:02 AM 68.0 °F - 66.0 °F 93% 30.11 in 0.5 mi Calm Calm - N/A Fog Fog
4:20 AM 68.0 °F - 66.0 °F 93% 30.12 in 0.5 mi Calm Calm - N/A Fog Fog
4:28 AM 68.0 °F - 66.9 °F 96% 30.12 in 1.5 mi Calm Calm - N/A   Partly Cloudy
4:54 AM 68.0 °F - 66.9 °F 96% 30.12 in 8.0 mi Calm Calm - N/A   Scattered Clouds
5:06 AM 68.0 °F - 66.9 °F 96% 30.12 in 1.8 mi Calm Calm - N/A   Partly Cloudy
5:20 AM 68.0 °F - 66.0 °F 93% 30.13 in 3.0 mi NNW 4.6 mph - N/A   Clear
5:54 AM 68.0 °F - 66.9 °F 96% 30.14 in 7.0 mi North 5.8 mph - N/A   Clear
6:54 AM 69.1 °F - 64.9 °F 87% 30.17 in 10.0 mi North 8.1 mph - N/A   Clear
7:54 AM 70.0 °F - 66.0 °F 87% 30.18 in 10.0 mi Calm Calm - N/A   Clear
8:54 AM 73.0 °F - 66.0 °F 79% 30.22 in 10.0 mi North 8.1 mph - N/A   Clear
9:54 AM 75.9 °F - 64.9 °F 69% 30.23 in 10.0 mi North 8.1 mph - N/A   Clear
10:54 AM 78.1 °F - 64.9 °F 64% 30.24 in 10.0 mi North 11.5 mph - N/A   Scattered Clouds
11:54 AM 79.0 °F - 64.0 °F 60% 30.24 in 10.0 mi ENE 8.1 mph - N/A   Scattered Clouds
12:54 PM 80.1 °F 81.7 °F 64.0 °F 58% 30.23 in 10.0 mi Variable 6.9 mph - N/A   Overcast
1:54 PM 80.1 °F 81.7 °F 64.0 °F 58% 30.21 in 10.0 mi North 8.1 mph - N/A   Overcast
2:54 PM 78.1 °F - 64.0 °F 62% 30.22 in 10.0 mi North 5.8 mph - N/A   Overcast
3:54 PM 75.9 °F - 63.0 °F 64% 30.22 in 10.0 mi NNE 6.9 mph - N/A   Mostly Cloudy
4:54 PM 79.0 °F - 62.1 °F 56% 30.21 in 10.0 mi NNE 5.8 mph - N/A   Mostly Cloudy
5:54 PM 77.0 °F - 59.0 °F 54% 30.22 in 10.0 mi East 4.6 mph - N/A   Clear
6:54 PM 70.0 °F - 61.0 °F 73% 30.23 in 10.0 mi Calm Calm - N/A   Clear
7:54 PM 68.0 °F - 61.0 °F 78% 30.24 in 10.0 mi ESE 4.6 mph - N/A   Clear
8:54 PM 66.0 °F - 61.0 °F 84% 30.26 in 10.0 mi Calm Calm - N/A   Clear
9:54 PM 66.0 °F - 60.1 °F 81% 30.26 in 10.0 mi East 4.6 mph - N/A   Clear
10:54 PM 64.0 °F - 60.1 °F 87% 30.27 in 10.0 mi Calm Calm - N/A   Clear
11:54 PM 64.9 °F - 61.0 °F 87% 30.27 in 10.0 mi Calm Calm - N/A   Clear